GW6266 Weather Reports


Display with metric or nautical units.
time (UTC)temp
F
wind
direction
speed
MPH
gust
MPH
rain 1hr
in
rain 24hr
in
rain mn
in
humidity
%
barometer
mb
20260503060127 53 221 0.0 0.0 0.00 0.00 0.00 70 1014.4
20260503054626 54 221 0.0 1.0 0.00 0.00 0.00 68 1014.5
20260503054126 54 221 0.0 0.0 0.00 0.00 0.00 68 1014.5
20260503053628 55 221 0.0 0.0 0.00 0.00 0.00 67 1014.6
20260503053127 55 221 0.0 0.0 0.00 0.00 0.00 66 1014.6
20260503052628 55 221 0.0 0.0 0.00 0.00 0.00 65 1014.7
20260503052128 56 221 0.0 0.0 0.00 0.00 0.00 64 1014.6
20260503051627 56 221 0.0 0.0 0.00 0.00 0.00 64 1014.7
20260503051127 56 221 0.0 0.0 0.00 0.00 0.00 62 1014.6
20260503050627 56 221 0.0 0.0 0.00 0.00 0.00 61 1014.6
20260503050126 57 221 0.0 0.0 0.00 0.00 0.00 60 1014.7
20260503045626 57 221 0.0 0.0 0.00 0.00 0.00 60 1014.6
20260503045128 57 221 0.0 0.0 0.00 0.00 0.00 60 1014.6
20260503044911 58 221 0.0 0.0 0.00 0.00 0.00 59 1014.6
20260503044127 58 221 0.0 2.0 0.00 0.00 0.00 59 1014.6
20260503043626 59 221 0.0 2.0 0.00 0.00 0.00 58 1014.6
20260503043127 59 221 0.0 1.0 0.00 0.00 0.00 57 1014.5
20260503042917 59 221 0.0 0.0 0.00 0.00 0.00 57 1014.5
20260503042127 60 221 0.0 1.0 0.00 0.00 0.00 55 1014.4
20260503041626 60 221 0.0 1.0 0.00 0.00 0.00 55 1014.4
20260503041126 61 210 0.0 2.0 0.00 0.00 0.00 53 1014.3
20260503040626 61 210 0.0 2.0 0.00 0.00 0.00 53 1014.3
20260503040127 62 210 0.0 0.0 0.00 0.00 0.00 50 1014.4
20260503035628 62 210 0.0 0.0 0.00 0.00 0.00 49 1014.3
20260503035127 63 210 0.0 1.0 0.00 0.00 0.00 49 1014.3
20260503034626 63 210 0.0 2.0 0.00 0.00 0.00 50 1014.3
20260503034126 64 210 0.0 2.0 0.00 0.00 0.00 47 1014.2
20260503033627 64 210 0.0 0.0 0.00 0.00 0.00 47 1014.0
20260503033414 65 210 0.0 0.0 0.00 0.00 0.00 46 1014.1
20260503032626 65 210 0.0 0.0 0.00 0.00 0.00 44 1014.0
20260503032127 66 210 0.0 0.0 0.00 0.00 0.00 43 1013.9
20260503031909 67 210 0.0 0.0 0.00 0.00 0.00 41 1013.9
20260503031126 67 210 0.0 0.0 0.00 0.00 0.00 41 1013.9
20260503030626 68 210 0.0 0.0 0.00 0.00 0.00 40 1013.8
20260503030411 68 210 0.0 0.0 0.00 0.00 0.00 39 1013.8
20260503025627 69 210 0.0 0.0 0.00 0.00 0.00 38 1013.9
20260503025128 69 210 0.0 0.0 0.00 0.00 0.00 37 1013.8
20260503024626 69 210 0.0 0.0 0.00 0.00 0.00 36 1013.8
20260503024128 70 210 0.0 2.0 0.00 0.00 0.00 35 1013.7
20260503023627 70 210 0.0 2.0 0.00 0.00 0.00 35 1013.7
20260503023127 70 210 0.0 2.0 0.00 0.00 0.00 35 1013.7
20260503022626 71 204 0.0 2.0 0.00 0.00 0.00 34 1013.7
20260503022127 71 309 0.0 2.0 0.00 0.00 0.00 33 1013.7
20260503021626 71 333 0.0 1.0 0.00 0.00 0.00 34 1013.5
20260503021127 72 333 0.0 2.0 0.00 0.00 0.00 32 1013.7
20260503020626 72 286 0.0 2.0 0.00 0.00 0.00 31 1013.7
20260503020127 72 258 1.0 2.0 0.00 0.00 0.00 31 1013.5
20260503015627 73 293 0.0 2.0 0.00 0.00 0.00 31 1013.5
20260503015127 73 251 0.0 2.0 0.00 0.00 0.00 31 1013.4
20260503014627 73 197 0.0 2.0 0.00 0.00 0.00 30 1013.4
20260503014127 74 300 0.0 3.0 0.00 0.00 0.00 30 1013.5
20260503013627 74 274 0.0 3.0 0.00 0.00 0.00 29 1013.5
20260503013125 74 206 0.0 2.0 0.00 0.00 0.00 28 1013.5
20260503012628 74 255 0.0 2.0 0.00 0.00 0.00 28 1013.4
20260503012413 74 219 0.0 2.0 0.00 0.00 0.00 27 1013.5
20260503011627 75 293 0.0 2.0 0.00 0.00 0.00 28 1013.5
20260503011126 75 285 0.0 2.0 0.00 0.00 0.00 28 1013.5
20260503010628 75 299 0.0 3.0 0.00 0.00 0.00 25 1013.5
20260503010415 75 48 1.0 4.0 0.00 0.00 0.00 25 1013.5
20260503005626 75 282 1.0 4.0 0.00 0.00 0.00 25 1013.7
20260503005126 76 295 0.0 3.0 0.00 0.00 0.00 25 1013.5
20260503004626 76 334 1.0 4.0 0.00 0.00 0.00 25 1013.7
20260503004126 76 197 0.0 4.0 0.00 0.00 0.00 24 1013.7
20260503003627 76 247 0.0 5.0 0.00 0.00 0.00 24 1013.7
20260503003413 77 312 0.0 5.0 0.00 0.00 0.00 24 1013.7
20260503002627 77 320 1.0 2.0 0.00 0.00 0.00 26 1013.7
20260503002408 78 168 0.0 3.0 0.00 0.00 0.00 25 1013.5
20260503001627 78 180 1.0 3.0 0.00 0.00 0.00 24 1013.5
20260503001206 78 175 0.0 5.0 0.00 0.00 0.00 24 1013.7
20260503001154 78 193 0.0 3.0 0.00 0.00 0.00 24 1013.7
20260503000126 79 152 1.0 5.0 0.00 0.00 0.00 23 1013.7
20260502235626 80 140 0.0 4.0 0.00 0.00 0.00 25 1013.7
20260502235202 79 292 0.0 2.0 0.00 0.00 0.00 25 1013.8
20260502235152 79 316 0.0 3.0 0.00 0.00 0.00 25 1013.8
20260502234126 79 214 0.0 2.0 0.00 0.00 0.00 26 1013.9
20260502233627 79 54 1.0 2.0 0.00 0.00 0.00 26 1013.8
20260502233126 79 124 0.0 2.0 0.00 0.00 0.00 26 1014.0
20260502232911 79 144 0.0 2.0 0.00 0.00 0.00 27 1014.0
20260502232127 79 171 0.0 2.0 0.00 0.00 0.00 25 1014.1
20260502231626 80 173 0.0 2.0 0.00 0.00 0.00 24 1014.1
20260502231125 80 212 0.0 2.0 0.00 0.00 0.00 24 1014.2
20260502230904 80 319 0.0 4.0 0.00 0.00 0.00 22 1014.1
20260502230126 80 0 0.0 4.0 0.00 0.00 0.00 26 1014.2
20260502225626 80 289 1.0 3.0 0.00 0.00 0.00 25 1014.3
20260502225126 79 55 0.0 2.0 0.00 0.00 0.00 26 1014.3
20260502224915 79 107 0.0 2.0 0.00 0.00 0.00 25 1014.4
20260502224125 80 190 0.0 2.0 0.00 0.00 0.00 24 1014.4
20260502223626 80 134 0.0 2.0 0.00 0.00 0.00 27 1014.5
20260502223127 80 68 1.0 3.0 0.00 0.00 0.00 26 1014.5
20260502222627 80 306 1.0 3.0 0.00 0.00 0.00 25 1014.6
20260502222128 80 290 1.0 4.0 0.00 0.00 0.00 25 1014.7
20260502221626 80 135 1.0 4.0 0.00 0.00 0.00 25 1014.7
20260502221127 80 25 1.0 3.0 0.00 0.00 0.00 26 1014.7
20260502220627 80 99 1.0 4.0 0.00 0.00 0.00 25 1014.7
20260502220127 80 94 1.0 4.0 0.00 0.00 0.00 27 1014.9
20260502215627 80 165 1.0 3.0 0.00 0.00 0.00 24 1014.9
20260502215126 80 109 0.0 2.0 0.00 0.00 0.00 27 1014.9
20260502214625 79 73 0.0 3.0 0.00 0.00 0.00 28 1015.1
20260502214127 79 62 1.0 3.0 0.00 0.00 0.00 26 1015.1
20260502213626 79 110 0.0 4.0 0.00 0.00 0.00 25 1015.1
20260502213125 79 65 1.0 4.0 0.00 0.00 0.00 24 1015.2
20260502212627 79 61 1.0 2.0 0.00 0.00 0.00 26 1015.3
20260502212412 79 128 1.0 3.0 0.00 0.00 0.00 27 1015.2
20260502211627 78 92 1.0 3.0 0.00 0.00 0.00 27 1015.3
20260502211126 78 90 1.0 4.0 0.00 0.00 0.00 27 1015.4
20260502210627 78 130 2.0 4.0 0.00 0.00 0.00 25 1015.5
20260502210126 78 171 2.0 4.0 0.00 0.00 0.00 26 1015.5
20260502205911 78 149 1.0 4.0 0.00 0.00 0.00 27 1015.4
20260502205127 78 164 1.0 3.0 0.00 0.00 0.00 31 1015.5
20260502204626 78 82 1.0 3.0 0.00 0.00 0.00 26 1015.5
20260502204125 77 47 1.0 4.0 0.00 0.00 0.00 28 1015.5
20260502203627 77 78 1.0 4.0 0.00 0.00 0.00 28 1015.6
20260502203125 77 92 1.0 4.0 0.00 0.00 0.00 31 1015.6
20260502202626 77 78 1.0 4.0 0.00 0.00 0.00 27 1015.6
20260502202126 77 145 1.0 3.0 0.00 0.00 0.00 29 1015.6
20260502201626 78 13 1.0 3.0 0.00 0.00 0.00 31 1015.6
20260502201414 77 37 1.0 4.0 0.00 0.00 0.00 30 1015.7
20260502201056 77 37 1.0 5.0 0.00 0.00 0.00 30 1015.7
20260502201051 77 94 1.0 4.0 0.00 0.00 0.00 30 1015.8
20260502195627 77 118 1.0 5.0 0.00 0.00 0.00 30 1015.7
20260502195411 76 24 2.0 4.0 0.00 0.00 0.00 32 1015.8
20260502194625 76 111 0.0 4.0 0.00 0.00 0.00 32 1015.8
20260502194126 76 0 1.0 6.0 0.00 0.00 0.00 34 1015.9
20260502193912 75 125 2.0 6.0 0.00 0.00 0.00 36 1016.0
20260502193126 75 82 2.0 5.0 0.00 0.00 0.00 34 1016.0
20260502192627 75 58 1.0 6.0 0.00 0.00 0.00 34 1015.9
20260502192124 75 110 2.0 6.0 0.00 0.00 0.00 36 1016.0
20260502191625 75 93 2.0 6.0 0.00 0.00 0.00 34 1016.1
20260502191127 75 54 2.0 6.0 0.00 0.00 0.00 37 1016.1
20260502190912 76 55 2.0 5.0 0.00 0.00 0.00 36 1016.1
20260502190125 75 37 1.0 6.0 0.00 0.00 0.00 35 1016.1
20260502185908 75 111 2.0 6.0 0.00 0.00 0.00 35 1016.1
20260502185126 74 282 1.0 5.0 0.00 0.00 0.00 36 1016.2
20260502184625 74 17 1.0 5.0 0.00 0.00 0.00 35 1016.4
20260502184126 74 125 2.0 6.0 0.00 0.00 0.00 36 1016.5
20260502183914 73 71 0.0 6.0 0.00 0.00 0.00 35 1016.4
20260502183126 73 34 1.0 5.0 0.00 0.00 0.00 35 1016.4
20260502182625 73 127 2.0 5.0 0.00 0.00 0.00 35 1016.5
20260502182125 73 117 2.0 5.0 0.00 0.00 0.00 37 1016.6
20260502181629 73 65 2.0 5.0 0.00 0.00 0.00 36 1016.5
20260502181126 72 97 1.0 5.0 0.00 0.00 0.00 37 1016.5
20260502180626 72 166 2.0 5.0 0.00 0.00 0.00 37 1016.4
20260502180126 72 41 2.0 4.0 0.00 0.00 0.00 38 1016.6
20260502170125 68 0 2.0 6.0 0.00 0.00 0.00 39 1016.7
20260502164125 67 104 2.0 5.0 0.00 0.00 0.00 39 1016.6
20260502163626 67 327 1.0 3.0 0.00 0.00 0.00 40 1016.7
20260502163125 66 25 1.0 5.0 0.00 0.00 0.00 40 1016.7
20260502162625 66 313 2.0 6.0 0.00 0.00 0.00 40 1016.7
20260502162125 66 0 3.0 6.0 0.00 0.00 0.00 40 1016.7
20260502161912 66 18 1.0 6.0 0.00 0.00 0.00 41 1016.7
20260502161159 65 344 2.0 4.0 0.00 0.00 0.00 40 1016.8
20260502161150 65 337 2.0 5.0 0.00 0.00 0.00 39 1016.8
20260502160124 65 338 1.0 4.0 0.00 0.00 0.00 40 1016.7
20260502152125 62 250 1.0 5.0 0.00 0.00 0.00 42 1016.6
20260502151911 62 52 2.0 7.0 0.00 0.00 0.00 42 1016.6
20260502151412 62 82 2.0 7.0 0.00 0.00 0.00 42 1016.5
20260502150626 62 56 2.0 5.0 0.00 0.00 0.00 43 1016.5
20260502150125 61 357 2.0 5.0 0.00 0.00 0.00 43 1016.6
20260502140126 51 1 0.0 0.0 0.00 0.00 0.00 62 1016.4
20260502130626 51 353 0.0 2.0 0.00 0.00 0.00 60 1016.4
20260502130413 51 0 0.0 2.0 0.00 0.00 0.00 61 1016.2
20260502123621 51 312 0.0 2.0 0.00 0.00 0.00 60 1016.0
20260502123402 51 312 0.0 2.0 0.00 0.00 0.00 59 1015.9
20260502122843 51 310 0.0 2.0 0.00 0.00 0.00 59 1016.0
20260502122617 51 310 0.0 2.0 0.00 0.00 0.00 59 1016.0
20260502122113 51 310 0.0 2.0 0.00 0.00 0.00 59 1015.9
20260502121606 51 319 0.0 2.0 0.00 0.00 0.00 59 1015.9
20260502121105 51 330 0.0 2.0 0.00 0.00 0.00 59 1015.9
20260502120607 51 330 0.0 2.0 0.00 0.00 0.00 59 1015.9
20260502115601 51 0 0.0 2.0 0.00 0.00 0.00 61 1015.9
20260502115102 51 83 0.0 2.0 0.00 0.00 0.00 61 1016.0
20260502114601 51 86 0.0 2.0 0.00 0.00 0.00 61 1015.9
20260502114102 51 306 0.0 2.0 0.00 0.00 0.00 61 1016.0
20260502113603 51 306 0.0 2.0 0.00 0.00 0.00 62 1016.0
20260502113321 51 0 0.0 2.0 0.00 0.00 0.00 62 1015.9
20260502112100 52 355 0.0 2.0 0.00 0.00 0.00 61 1016.0
20260502111847 52 355 0.0 2.0 0.00 0.00 0.00 62 1015.9
20260502111102 52 355 0.0 2.0 0.00 0.00 0.00 61 1015.8
20260502110846 52 358 0.0 2.0 0.00 0.00 0.00 60 1015.9
20260502110053 52 358 0.0 2.0 0.00 0.00 0.00 59 1015.9
20260502105551 52 314 0.0 2.0 0.00 0.00 0.00 60 1015.9
20260502105042 52 343 0.0 2.0 0.00 0.00 0.00 61 1015.9
20260502104831 51 338 0.0 2.0 0.00 0.00 0.00 62 1015.9
20260502104332 51 35 0.0 2.0 0.00 0.00 0.00 63 1015.8
20260502103540 51 0 0.0 2.0 0.00 0.00 0.00 62 1015.9
20260502103042 50 343 0.0 2.0 0.00 0.00 0.00 64 1015.9
20260502102543 50 334 0.0 1.0 0.00 0.00 0.00 64 1015.9
20260502102042 50 334 0.0 2.0 0.00 0.00 0.00 64 1015.9
20260502101828 50 334 0.0 2.0 0.00 0.00 0.00 65 1015.9
20260502101034 50 334 0.0 2.0 0.00 0.00 0.00 65 1015.8
20260502100535 49 334 0.0 2.0 0.00 0.00 0.00 65 1015.8
20260502091529 48 275 0.0 2.0 0.00 0.00 0.00 71 1015.9
20260502091030 48 275 0.0 2.0 0.00 0.00 0.00 72 1016.0
20260502090529 48 275 0.0 2.0 0.00 0.00 0.00 72 1016.0
20260502071525 49 275 0.0 0.0 0.00 0.00 0.00 74 1016.2
20260502071025 49 275 0.0 0.0 0.00 0.00 0.00 73 1016.1
20260502070524 49 275 0.0 0.0 0.00 0.00 0.00 73 1016.1
20260502070024 49 275 0.0 0.0 0.00 0.00 0.00 74 1016.1
20260502065524 49 275 0.0 0.0 0.00 0.00 0.00 73 1016.1
20260502065026 49 275 0.0 2.0 0.00 0.00 0.00 73 1016.0
20260502064525 49 275 0.0 2.0 0.00 0.00 0.00 73 1016.2
20260502064027 49 275 0.0 0.0 0.00 0.00 0.00 72 1016.1
20260502063605 50 275 0.0 0.0 0.00 0.00 0.00 73 1016.1
20260502063553 49 275 0.0 0.0 0.00 0.00 0.00 73 1016.0
20260502062526 50 275 0.0 0.0 0.00 0.00 0.00 72 1016.1
20260502062025 50 275 0.0 0.0 0.00 0.00 0.00 71 1016.2
20260502061524 50 275 0.0 0.0 0.00 0.00 0.00 71 1016.2
20260502061025 50 275 0.0 0.0 0.00 0.00 0.00 71 1016.1
20260502060812 51 275 0.0 0.0 0.00 0.00 0.00 72 1016.1